VOZ723 YPAD-YPPH

Flight info

Callsign VOZ723
Flight time 3h 1m
Altitude 40000
Route GILES Q33 ESP Q158 KABLI
Aircraft B738/M-SAE3DGHIM1RWZ/LB1

Departure

Time 2025-09-08 12:59
Airport Adelaide International Airport (YPAD)

Arrival

Time 2025-09-08 16:01
Airport Perth International Airport (YPPH)
Time Latitude Longitude Altitude Speed Heading
2025-09-08 12:49 -34.93806 138.54031 26 ft 0 kts 320°
2025-09-08 12:50 -34.93817 138.54042 32 ft 3 kts 321°
2025-09-08 12:50 -34.93847 138.54074 29 ft 3 kts 309°
2025-09-08 12:51 -34.93858 138.54111 32 ft 1 kts 271°
2025-09-08 12:54 -34.93883 138.54092 29 ft 4 kts 146°
2025-09-08 12:54 -34.93941 138.54187 28 ft 9 kts 139°
2025-09-08 12:55 -34.93990 138.54236 31 ft 0 kts 140°
2025-09-08 12:57 -34.93993 138.54240 30 ft 3 kts 140°
2025-09-08 12:57 -34.94093 138.54279 27 ft 9 kts 221°
2025-09-08 12:58 -34.94109 138.54258 27 ft 5 kts 229°
2025-09-08 12:58 -34.94696 138.53406 23 ft 130 kts 230°
2025-09-08 12:59 -34.96198 138.51232 913 ft 179 kts 229°
2025-09-08 12:59 -34.97824 138.48861 2325 ft 197 kts 230°
2025-09-08 13:00 -34.99749 138.46047 3061 ft 226 kts 231°
2025-09-08 13:00 -35.01853 138.42963 4250 ft 246 kts 236°
2025-09-08 13:01 -35.02578 138.39015 5941 ft 239 kts 268°
2025-09-08 13:01 -35.02795 138.34980 7577 ft 242 kts 268°
2025-09-08 13:01 -35.02908 138.32909 8282 ft 247 kts 268°
2025-09-08 13:02 -35.03147 138.28683 9778 ft 253 kts 268°
2025-09-08 13:03 -35.03549 138.21718 10684 ft 307 kts 268°
2025-09-08 13:03 -35.03867 138.16343 11702 ft 323 kts 268°
2025-09-08 13:04 -35.04196 138.10841 13159 ft 328 kts 268°
2025-09-08 13:04 -35.04526 138.05276 14536 ft 334 kts 268°
2025-09-08 13:05 -35.04860 137.99595 15981 ft 337 kts 268°
2025-09-08 13:05 -35.05196 137.93846 17387 ft 342 kts 268°
2025-09-08 13:06 -35.05534 137.88005 18706 ft 347 kts 268°
2025-09-08 13:06 -35.05703 137.85060 19293 ft 349 kts 268°
2025-09-08 13:07 -35.06212 137.76140 21008 ft 356 kts 269°
2025-09-08 13:07 -35.06554 137.70073 22109 ft 361 kts 269°
2025-09-08 13:08 -35.06897 137.63920 23160 ft 366 kts 269°
2025-09-08 13:08 -35.07240 137.57727 24082 ft 370 kts 269°
2025-09-08 13:09 -35.07586 137.51425 24949 ft 373 kts 269°
2025-09-08 13:11 -35.08962 137.25706 28013 ft 386 kts 270°
2025-09-08 13:13 -35.10320 136.99342 31036 ft 386 kts 271°
2025-09-08 13:15 -35.11593 136.73464 33740 ft 379 kts 272°
2025-09-08 13:16 -35.12649 136.51079 35391 ft 378 kts 272°
2025-09-08 13:19 -35.13951 136.22202 37152 ft 380 kts 272°
2025-09-08 13:21 -35.15064 135.96200 38107 ft 385 kts 272°
2025-09-08 13:23 -35.16127 135.70077 38112 ft 386 kts 272°
2025-09-08 13:25 -35.17135 135.43912 38105 ft 386 kts 272°
2025-09-08 13:27 -35.18089 135.17658 38102 ft 388 kts 272°
2025-09-08 13:29 -35.18537 134.91297 38102 ft 388 kts 276°
2025-09-08 13:31 -35.17808 134.64874 38097 ft 391 kts 276°
2025-09-08 13:33 -35.17069 134.38295 38095 ft 393 kts 276°
2025-09-08 13:35 -35.16269 134.11648 38086 ft 393 kts 276°
2025-09-08 13:37 -35.15410 133.85016 38081 ft 393 kts 276°
2025-09-08 13:39 -35.14491 133.58327 38080 ft 393 kts 276°
2025-09-08 13:40 -35.13640 133.34998 38075 ft 394 kts 276°
2025-09-08 13:43 -35.12479 133.04994 38066 ft 393 kts 276°
2025-09-08 13:44 -35.11527 132.81705 38069 ft 393 kts 276°
2025-09-08 13:47 -35.10237 132.51771 38060 ft 393 kts 277°
2025-09-08 13:48 -35.09183 132.28486 38060 ft 394 kts 277°
2025-09-08 13:51 -35.07753 131.98399 38065 ft 397 kts 277°
2025-09-08 13:53 -35.06406 131.71371 38076 ft 402 kts 277°
2025-09-08 13:55 -35.04772 131.44126 38073 ft 403 kts 280°
2025-09-08 13:57 -35.01952 131.17101 38071 ft 401 kts 280°
2025-09-08 13:59 -34.98802 130.86913 38069 ft 398 kts 280°
2025-09-08 14:01 -34.96311 130.63552 38070 ft 398 kts 281°
2025-09-08 14:03 -34.93020 130.33329 38077 ft 403 kts 281°
2025-09-08 14:05 -34.90378 130.09566 38076 ft 407 kts 281°
2025-09-08 14:07 -34.86881 129.78754 38076 ft 409 kts 281°
2025-09-08 14:09 -34.84106 129.54792 38074 ft 409 kts 281°
2025-09-08 14:11 -34.80468 129.23999 38078 ft 410 kts 281°
2025-09-08 14:13 -34.77577 129.00005 38080 ft 411 kts 281°
2025-09-08 14:15 -34.73770 128.69018 38079 ft 413 kts 280°
2025-09-08 14:17 -34.70746 128.44861 38082 ft 414 kts 280°
2025-09-08 14:19 -34.66785 128.13799 38081 ft 414 kts 280°
2025-09-08 14:21 -34.63654 127.89679 38077 ft 414 kts 280°
2025-09-08 14:23 -34.59559 127.58659 38081 ft 415 kts 280°
2025-09-08 14:25 -34.56307 127.34447 38084 ft 416 kts 280°
2025-09-08 14:27 -34.52523 127.06743 38078 ft 418 kts 280°
2025-09-08 14:29 -34.48674 126.79041 38078 ft 418 kts 280°
2025-09-08 14:31 -34.44914 126.52429 38084 ft 418 kts 280°
2025-09-08 14:33 -34.40934 126.24719 38086 ft 418 kts 280°
2025-09-08 14:35 -34.36889 125.97025 38088 ft 418 kts 279°
2025-09-08 14:36 -34.33296 125.72791 38091 ft 419 kts 279°
2025-09-08 14:39 -34.28599 125.41617 38088 ft 420 kts 279°
2025-09-08 14:41 -34.24352 125.13896 38093 ft 420 kts 279°
2025-09-08 14:43 -34.19476 124.82691 38150 ft 425 kts 280°
2025-09-08 14:45 -34.15542 124.57960 39047 ft 429 kts 280°
2025-09-08 14:47 -34.11054 124.30140 40107 ft 420 kts 280°
2025-09-08 14:49 -34.06468 124.02131 40112 ft 430 kts 280°
2025-09-08 14:51 -34.01791 123.73999 40123 ft 425 kts 280°
2025-09-08 14:53 -33.97140 123.46423 40136 ft 418 kts 280°
2025-09-08 14:55 -33.92455 123.19031 40152 ft 420 kts 280°
2025-09-08 14:57 -33.87657 122.91374 40164 ft 425 kts 280°
2025-09-08 14:59 -33.82773 122.63611 40175 ft 424 kts 280°
2025-09-08 15:01 -33.77860 122.36067 40190 ft 420 kts 280°
2025-09-08 15:03 -33.72929 122.08780 40212 ft 418 kts 281°
2025-09-08 15:05 -33.67819 121.81297 40229 ft 428 kts 285°
2025-09-08 15:07 -33.59549 121.54633 40246 ft 423 kts 288°
2025-09-08 15:08 -33.52376 121.31774 40260 ft 416 kts 287°
2025-09-08 15:11 -33.43186 121.02725 40282 ft 416 kts 288°
2025-09-08 15:13 -33.34902 120.76774 40293 ft 420 kts 288°
2025-09-08 15:15 -33.26519 120.50739 40306 ft 419 kts 288°
2025-09-08 15:17 -33.18143 120.24940 40314 ft 415 kts 288°
2025-09-08 15:19 -33.09806 119.99468 40326 ft 411 kts 288°
2025-09-08 15:21 -33.01456 119.74160 40339 ft 411 kts 288°
2025-09-08 15:23 -32.93045 119.48870 40348 ft 412 kts 288°
2025-09-08 15:25 -32.84574 119.23605 40360 ft 411 kts 288°
2025-09-08 15:27 -32.76080 118.98468 40372 ft 409 kts 288°
2025-09-08 15:29 -32.67584 118.73519 40372 ft 407 kts 289°
2025-09-08 15:31 -32.59074 118.48722 40381 ft 406 kts 289°
2025-09-08 15:32 -32.51601 118.27098 40375 ft 406 kts 289°
2025-09-08 15:35 -32.40776 117.96031 35674 ft 407 kts 288°
2025-09-08 15:37 -32.33127 117.74249 30459 ft 412 kts 287°
2025-09-08 15:39 -32.24733 117.50535 25780 ft 372 kts 287°
2025-09-08 15:39 -32.22750 117.44948 24723 ft 365 kts 287°
2025-09-08 15:40 -32.20800 117.39464 23657 ft 359 kts 287°
2025-09-08 15:40 -32.18899 117.34132 22630 ft 350 kts 287°
2025-09-08 15:41 -32.17022 117.28872 21666 ft 345 kts 287°
2025-09-08 15:41 -32.16087 117.26248 21186 ft 351 kts 287°
2025-09-08 15:41 -32.14154 117.20822 20173 ft 359 kts 287°
2025-09-08 15:42 -32.11383 117.13111 18762 ft 346 kts 287°
2025-09-08 15:43 -32.09523 117.07938 17762 ft 338 kts 288°
2025-09-08 15:43 -32.07713 117.02910 16846 ft 329 kts 288°
2025-09-08 15:44 -32.05947 116.98008 15962 ft 321 kts 288°
2025-09-08 15:44 -32.04212 116.93191 15076 ft 321 kts 288°
2025-09-08 15:45 -32.02432 116.88249 14160 ft 331 kts 289°
2025-09-08 15:45 -32.01533 116.85765 13660 ft 327 kts 289°
2025-09-08 15:45 -31.99777 116.80923 12783 ft 316 kts 289°
2025-09-08 15:46 -31.97232 116.73911 11458 ft 305 kts 289°
2025-09-08 15:47 -31.95567 116.69320 10640 ft 307 kts 290°
2025-09-08 15:47 -31.93922 116.64803 10326 ft 291 kts 290°
2025-09-08 15:48 -31.92384 116.60591 10063 ft 269 kts 289°
2025-09-08 15:48 -31.90944 116.56644 9618 ft 258 kts 289°
2025-09-08 15:48 -31.90239 116.54708 9328 ft 256 kts 289°
2025-09-08 15:49 -31.88170 116.49039 8506 ft 249 kts 289°
2025-09-08 15:49 -31.87489 116.47176 8222 ft 247 kts 289°
2025-09-08 15:50 -31.85470 116.41661 7431 ft 242 kts 289°
2025-09-08 15:51 -31.84138 116.38021 6905 ft 250 kts 289°
2025-09-08 15:51 -31.82731 116.34185 6312 ft 256 kts 289°
2025-09-08 15:52 -31.81328 116.30370 5751 ft 251 kts 289°
2025-09-08 15:52 -31.79988 116.26738 5558 ft 234 kts 289°
2025-09-08 15:53 -31.78868 116.23263 5252 ft 221 kts 281°
2025-09-08 15:53 -31.78478 116.21544 5004 ft 220 kts 280°
2025-09-08 15:53 -31.77705 116.18101 4544 ft 216 kts 281°
2025-09-08 15:54 -31.76554 116.13122 3876 ft 226 kts 281°
2025-09-08 15:55 -31.75716 116.09542 3639 ft 223 kts 280°
2025-09-08 15:55 -31.76244 116.06328 3437 ft 197 kts 234°
2025-09-08 15:56 -31.77848 116.03838 3125 ft 185 kts 231°
2025-09-08 15:56 -31.79379 116.01505 2712 ft 174 kts 230°
2025-09-08 15:56 -31.80241 116.00582 2506 ft 166 kts 202°
2025-09-08 15:57 -31.82357 115.99932 2091 ft 150 kts 196°
2025-09-08 15:57 -31.84283 115.99357 1741 ft 134 kts 195°
2025-09-08 15:58 -31.86938 115.98580 1196 ft 128 kts 194°
2025-09-08 15:59 -31.89590 115.97798 703 ft 133 kts 192°
2025-09-08 15:59 -31.90482 115.97549 548 ft 134 kts 193°
2025-09-08 16:00 -31.92324 115.97002 210 ft 137 kts 192°
2025-09-08 16:00 -31.94013 115.96511 49 ft 94 kts 194°
2025-09-08 16:00 -31.94372 115.96407 48 ft 23 kts 188°
2025-09-08 16:01 -31.94502 115.96618 50 ft 14 kts 103°
2025-09-08 16:01 -31.94398 115.96751 50 ft 13 kts 14°
2025-09-08 16:02 -31.94203 115.96912 50 ft 5 kts 103°
2025-09-08 16:03 -31.94200 115.96950 50 ft 5 kts 46°
2025-09-08 16:03 -31.94145 115.96962 47 ft 0 kts